Skip Page Navigation
NASA JPL Caltech
NASA Logo - Jet Propulsion Laboratory + View the NASA Portal
+ Near-Earth Object (NEO) Program
Search JPL
JPL Home Earth Solar System Stars & Galaxies Technology
JPL Solar System Dynamics
BODIES ORBITS EPHEMERIDES TOOLS PHYSICAL DATA DISCOVERY FAQ SITE MAP
JPL Small-Body Database Browser
Search: [ help ]  
8160 (1990 MG)
Classification: Main-belt Asteroid          SPK-ID: 2008160
Ephemeris | Orbit Diagram | Orbital Elements | Physical Parameters | Discovery Circumstances ]

[ show orbit diagram ]
Orbital Elements at Epoch 2456800.5 (2014-May-23.0) TDB
Reference: JPL 13 (heliocentric ecliptic J2000)
 Element Value Uncertainty (1-sigma)   Units 
e .1865022552837144 5.1209e-08  
a 2.190022739094834 1.1771e-08 AU
q 1.78157855913103 1.1041e-07 AU
i 3.611224642911766 5.3205e-06 deg
node 88.72191429919143 0.00010659 deg
peri 218.5098102407815 0.00010865 deg
M 130.9838379282563 2.38e-05 deg
tp 2456369.788394670451
(2013-Mar-18.28839467)
7.6809e-05 JED
period 1183.780994442739
3.24
9.5436e-06
2.613e-08
d
yr
n .304110305613978 2.4517e-09 deg/d
Q 2.598466919058638 1.3966e-08 AU
  Orbit Determination Parameters
   # obs. used (total)      1087  
   data-arc span      20783 days (56.90 yr)  
   first obs. used      1957-04-28  
   last obs. used      2014-03-23  
   planetary ephem.      DE431  
   SB-pert. ephem.      SB431-BIG16  
   condition code      0  
   fit RMS      .50137  
   data source      ORB  
   producer      Otto Matic  
   solution date      2014-Jun-16 13:39:14  

Additional Information
 Earth MOID = .767492 AU 
 T_jup = 3.648 
[ show covariance matrix ]

Ephemeris | Orbit Diagram | Orbital Elements | Physical Parameters | Discovery Circumstances ]

Physical Parameter Table
Parameter Symbol Value Units Sigma Reference Notes
absolute magnitude H 14.0 mag n/a MPO279601  

8160 (1990 MG)          Discovered 1990-Jun-21 by Holt, H. E. at Palomar (675)
Reference: DISCOVERY.DBLast Updated: 2003-08-29

Alternate Designations
 1990 MG = 1958 VN = 1979 BY2 
Ephemeris | Orbit Diagram | Orbital Elements | Physical Parameters | Discovery Circumstances ]
ABOUT SSD CREDITS/AWARDS PRIVACY/COPYRIGHT GLOSSARY LINKS
FirstGov 2014-Jul-31 19:36 UT
(server date/time)  
NASA Home Page
Site Manager:   Donald K. Yeomans
Webmaster  Alan B. Chamberlin